Weather in Malkovo

Russia / Tyumen Oblast     57°07′28″N   65°51′58″E
temp.,
°C
wind,
m/s
gust,
m/s
humid.,
%
clouds,
%
prec.,
mm/h
press.,
hPa
HPBL,
m
17 april, sat
sat1723:00+2ene27550 0.0 1028225
02:000ese23625 0.0 102879
05:00−1sse11633 0.0 102836
08:00+3sw34510 0.0 1027335
11:00+8wsw35365 0.0 10251568
14:00+11w57305 0.0 10222182
17:00+11w593265 0.0 10202387
20:00+7wnw384278 0.0 1019272
18 april, sun
sun1823:00+5w311546 0.0 1017292
02:00+4w31165100 0.0 1015411
05:00+3w5137220 0.0 1013559
08:00+5wnw61269100 0.0 10121155
11:00+1n8125245 0.4 10171169
14:00+2n8113870 0.0 10221940
17:00+1nne79295 0.0 10262027
20:00−2nne59390 0.0 10291376
19 april, mon
mon1923:00−4ne49444 0.0 10321454
02:00−5nne37445 0.0 10331371
05:00−5n35444 0.0 10341109
08:00−4n4642100 0.0 10351511
11:00−2n4631100 0.0 10351977
14:00+1n4627100 0.0 10352293
17:00+1n4627100 0.0 10342329
20:00−2nne244130 0.0 1035288
20 april, tue
tue2023:00−3ene12490 0.0 103549
02:00−4sw11486 0.0 103542
05:00−4w24495 0.0 1035116
08:000w363346 0.0 1034460
11:00+5wnw4731100 0.0 10321453
14:00+7wnw583151 0.0 10301568
17:00+9nw58365 0.0 10291691
20:00+5wnw39565 0.0 1029187
21 april, wed
wed2123:00+3wnw39655 0.0 1029182
02:00+2wnw310685 0.0 1028231
05:00+1wnw310740 0.0 1029242
08:00+4nw510645 0.0 1031476
11:00+9nnw57505 0.0 10301078
14:00+12nnw474213 0.0 10311661
17:00+11ne554942 0.0 10321186
20:00+6e47705 0.0 1034373